• en France
  • Liste des pays
  • À 7 jours
  • Température de l'eau
  • Carte satellitaire
  • Carte météo
  • Widgets météo
  • user-avatar
    Se connecter

    Météo par heure à Dorohi

    Ce jour, 21 Septembre, Vendredi

    Heure Température Précipitation Vent Pression Humidité
    00:00 +16°C° 0 mm 2 m/s 751 mmHg 87%
    01:00 +16°C° 0 mm 2 m/s 751 mmHg 89%
    02:00 +16°C° 0 mm 2 m/s 751 mmHg 91%
    03:00 +16°C° 0 mm 2 m/s 751 mmHg 90%
    04:00 +16°C° 0 mm 2 m/s 751 mmHg 89%
    05:00 +16°C° 0 mm 2 m/s 751 mmHg 89%
    06:00 +17°C° 0 mm 2 m/s 752 mmHg 86%
    07:00 +18°C° 0 mm 2 m/s 752 mmHg 83%
    08:00 +18°C° 0 mm 3 m/s 752 mmHg 81%
    09:00 +20°C° 0 mm 3 m/s 752 mmHg 75%
    10:00 +22°C° 0 mm 3 m/s 752 mmHg 70%
    11:00 +24°C° 0 mm 3 m/s 752 mmHg 64%
    12:00 +25°C° 0 mm 3 m/s 751 mmHg 60%
    13:00 +26°C° 0 mm 3 m/s 751 mmHg 57%
    14:00 +27°C° 0 mm 4 m/s 751 mmHg 53%
    15:00 +26°C° 0 mm 3 m/s 750 mmHg 58%
    16:00 +26°C° 0 mm 3 m/s 750 mmHg 63%
    17:00 +25°C° 0 mm 3 m/s 749 mmHg 68%
    18:00 +24°C° 0 mm 3 m/s 749 mmHg 71%
    19:00 +21°C° 0 mm 4 m/s 749 mmHg 73%
    20:00 +20°C° 0 mm 4 m/s 749 mmHg 76%
    21:00 +20°C° 0 mm 4 m/s 748 mmHg 75%
    22:00 +19°C° 0 mm 4 m/s 748 mmHg 75%
    23:00 +19°C° 0 mm 4 m/s 747 mmHg 74%

    Demain, 22 Septembre, Samedi

    Heure Température Précipitation Vent Pression Humidité
    00:00 +19°C° 0 mm 4 m/s 747 mmHg 74%
    01:00 +19°C° 0 mm 5 m/s 746 mmHg 73%
    02:00 +19°C° 0 mm 5 m/s 746 mmHg 73%
    03:00 +17°C° 0 mm 5 m/s 745 mmHg 72%
    04:00 +17°C° 0 mm 5 m/s 745 mmHg 72%
    05:00 +17°C° 0 mm 5 m/s 744 mmHg 71%
    06:00 +17°C° 0 mm 5 m/s 745 mmHg 72%
    07:00 +17°C° 0 mm 5 m/s 745 mmHg 72%
    08:00 +17°C° 0 mm 6 m/s 745 mmHg 73%
    09:00 +16°C° 0.2 mm 5 m/s 745 mmHg 76%
    10:00 +14°C° 0.2 mm 4 m/s 746 mmHg 78%
    11:00 +13°C° 0.2 mm 4 m/s 746 mmHg 81%
    12:00 +12°C° 0.3 mm 3 m/s 746 mmHg 83%
    13:00 +12°C° 0.3 mm 3 m/s 747 mmHg 86%
    14:00 +12°C° 0.3 mm 3 m/s 747 mmHg 88%
    15:00 +12°C° 0.2 mm 3 m/s 747 mmHg 88%
    16:00 +12°C° 0.2 mm 4 m/s 747 mmHg 87%
    17:00 +11°C° 0.2 mm 4 m/s 747 mmHg 87%
    18:00 +11°C° 0.1 mm 4 m/s 747 mmHg 87%
    19:00 +11°C° 0.1 mm 3 m/s 747 mmHg 87%
    20:00 +11°C° 0.1 mm 3 m/s 747 mmHg 87%
    21:00 +10°C° 0 mm 3 m/s 747 mmHg 88%
    22:00 +10°C° 0 mm 3 m/s 747 mmHg 90%
    23:00 +9°C° 0 mm 3 m/s 747 mmHg 91%

    Après-demain, 23 Septembre, Dimanche

    Heure Température Précipitation Vent Pression Humidité
    00:00 +9°C° 0 mm 3 m/s 747 mmHg 93%
    01:00 +8°C° 0 mm 3 m/s 747 mmHg 94%
    02:00 +8°C° 0 mm 3 m/s 746 mmHg 96%
    03:00 +8°C° 0 mm 3 m/s 746 mmHg 96%
    04:00 +7°C° 0 mm 3 m/s 746 mmHg 96%
    05:00 +7°C° 0 mm 3 m/s 746 mmHg 96%
    06:00 +8°C° 0 mm 3 m/s 746 mmHg 93%
    07:00 +8°C° 0 mm 3 m/s 746 mmHg 90%
    08:00 +8°C° 0 mm 4 m/s 745 mmHg 88%
    09:00 +10°C° 0 mm 4 m/s 745 mmHg 81%
    10:00 +11°C° 0 mm 4 m/s 745 mmHg 75%
    11:00 +13°C° 0 mm 5 m/s 745 mmHg 69%
    12:00 +13°C° 0.2 mm 5 m/s 745 mmHg 70%
    13:00 +13°C° 0.2 mm 5 m/s 745 mmHg 71%
    14:00 +12°C° 0.2 mm 5 m/s 745 mmHg 71%
    15:00 +12°C° 0.1 mm 5 m/s 745 mmHg 73%
    16:00 +12°C° 0.1 mm 4 m/s 745 mmHg 74%
    17:00 +12°C° 0.1 mm 3 m/s 745 mmHg 75%
    18:00 +11°C° 0.2 mm 3 m/s 745 mmHg 80%
    19:00 +10°C° 0.2 mm 3 m/s 745 mmHg 84%
    20:00 +8°C° 0.2 mm 4 m/s 745 mmHg 89%
    21:00 +7°C° 0 mm 4 m/s 745 mmHg 89%
    22:00 +7°C° 0 mm 4 m/s 745 mmHg 89%
    23:00 +7°C° 0 mm 4 m/s 745 mmHg 89%

    24 Septembre, Lundi

    Heure Température Précipitation Vent Pression Humidité
    00:00 +7°C° 0 mm 3 m/s 745 mmHg 90%
    01:00 +7°C° 0 mm 3 m/s 745 mmHg 91%
    02:00 +5°C° 0 mm 3 m/s 745 mmHg 92%
    03:00 +5°C° 0 mm 3 m/s 745 mmHg 94%
    04:00 +5°C° 0 mm 2 m/s 745 mmHg 96%
    05:00 +5°C° 0 mm 2 m/s 745 mmHg 97%
    06:00 +6°C° 0 mm 2 m/s 745 mmHg 95%
    07:00 +7°C° 0 mm 1 m/s 745 mmHg 92%
    08:00 +8°C° 0 mm 1 m/s 744 mmHg 90%
    09:00 +8°C° 0 mm 2 m/s 744 mmHg 85%
    10:00 +10°C° 0 mm 2 m/s 744 mmHg 79%
    11:00 +11°C° 0 mm 3 m/s 743 mmHg 74%
    12:00 +11°C° 0.5 mm 3 m/s 743 mmHg 77%
    13:00 +11°C° 0.5 mm 3 m/s 742 mmHg 79%
    14:00 +10°C° 0.5 mm 4 m/s 741 mmHg 81%
    15:00 +10°C° 1.7 mm 4 m/s 740 mmHg 85%
    16:00 +8°C° 1.7 mm 5 m/s 740 mmHg 88%
    17:00 +7°C° 1.7 mm 5 m/s 739 mmHg 92%
    18:00 +7°C° 2.4 mm 6 m/s 738 mmHg 92%
    19:00 +7°C° 2.4 mm 6 m/s 738 mmHg 93%
    20:00 +7°C° 2.4 mm 6 m/s 737 mmHg 93%
    21:00 +5°C° 1.8 mm 7 m/s 737 mmHg 93%
    22:00 +5°C° 1.8 mm 7 m/s 737 mmHg 93%
    23:00 +5°C° 1.8 mm 7 m/s 737 mmHg 92%

    25 Septembre, Mardi

    Heure Température Précipitation Vent Pression Humidité
    00:00 +5°C° 1.7 mm 8 m/s 737 mmHg 92%
    01:00 +5°C° 1.7 mm 8 m/s 737 mmHg 91%
    02:00 +5°C° 1.7 mm 9 m/s 737 mmHg 90%
    03:00 +5°C° 1.1 mm 9 m/s 738 mmHg 89%
    04:00 +5°C° 1.1 mm 9 m/s 738 mmHg 87%
    05:00 +5°C° 1.1 mm 9 m/s 739 mmHg 85%
    06:00 +5°C° 0.5 mm 9 m/s 739 mmHg 85%
    07:00 +5°C° 0.5 mm 9 m/s 740 mmHg 84%
    08:00 +3°C° 0.5 mm 9 m/s 741 mmHg 83%
    09:00 +5°C° 0.2 mm 9 m/s 741 mmHg 80%
    10:00 +5°C° 0.2 mm 9 m/s 742 mmHg 77%
    11:00 +6°C° 0.2 mm 9 m/s 743 mmHg 74%
    12:00 +6°C° 0.1 mm 8 m/s 743 mmHg 68%
    13:00 +7°C° 0.1 mm 8 m/s 743 mmHg 62%
    14:00 +7°C° 0.1 mm 8 m/s 744 mmHg 56%
    15:00 +8°C° 0 mm 7 m/s 744 mmHg 56%
    16:00 +7°C° 0 mm 6 m/s 745 mmHg 57%
    17:00 +7°C° 0 mm 5 m/s 745 mmHg 57%
    18:00 +6°C° 0 mm 5 m/s 745 mmHg 60%
    19:00 +5°C° 0 mm 4 m/s 745 mmHg 64%
    20:00 +4°C° 0 mm 4 m/s 746 mmHg 67%
    21:00 +4°C° 0 mm 4 m/s 746 mmHg 68%
    22:00 +3°C° 0 mm 4 m/s 747 mmHg 69%
    23:00 +3°C° 0 mm 4 m/s 747 mmHg 70%

    26 Septembre, Mercredi

    Heure Température Précipitation Vent Pression Humidité
    00:00 +3°C° 0 mm 4 m/s 747 mmHg 71%
    01:00 +3°C° 0 mm 4 m/s 748 mmHg 71%
    02:00 +3°C° 0 mm 4 m/s 748 mmHg 72%
    03:00 +3°C° 0 mm 4 m/s 748 mmHg 72%
    04:00 +1°C° 0 mm 4 m/s 749 mmHg 72%
    05:00 +1°C° 0 mm 4 m/s 749 mmHg 71%
    06:00 +2°C° 0 mm 5 m/s 750 mmHg 68%
    07:00 +3°C° 0 mm 5 m/s 750 mmHg 65%
    08:00 +3°C° 0 mm 6 m/s 750 mmHg 62%
    09:00 +4°C° 0 mm 6 m/s 751 mmHg 58%
    10:00 +5°C° 0 mm 6 m/s 751 mmHg 54%
    11:00 +6°C° 0 mm 7 m/s 752 mmHg 50%
    12:00 +8°C° 0 mm 6 m/s 752 mmHg 50%
    13:00 +8°C° 0 mm 6 m/s 753 mmHg 49%
    14:00 +8°C° 0 mm 6 m/s 753 mmHg 48%
    15:00 +7°C° 0 mm 5 m/s 754 mmHg 52%
    16:00 +7°C° 0 mm 4 m/s 754 mmHg 56%
    17:00 +7°C° 0 mm 3 m/s 754 mmHg 60%
    18:00 +5°C° 0 mm 3 m/s 755 mmHg 64%
    19:00 +5°C° 0 mm 2 m/s 755 mmHg 68%
    20:00 +3°C° 0 mm 2 m/s 756 mmHg 72%
    21:00 +3°C° 0 mm 2 m/s 756 mmHg 73%
    22:00 +2°C° 0 mm 2 m/s 756 mmHg 74%
    23:00 +2°C° 0 mm 2 m/s 757 mmHg 74%
    Voir plus